529  
ASUS43 KMKX 240321  
RWRWI  
 
WISCONSIN REGIONAL WEATHER ROUNDUP  
NATIONAL WEATHER SERVICE MILWAUKEE/SULLIVAN WI  
1000 PM CDT SUN SEP 23 2018  
 
NOTE: "FAIR" INDICATES FEW OR NO CLOUDS BELOW 12,000 FEET WITH NO  
SIGNIFICANT WEATHER AND/OR S TO VISIBILITY
.  
 
WIZ001-002-006>008-014>016-023>028-240400-  
NORTHWEST WISCONSIN  
 
CITY SKY/WX TMP DP RH WIND PRES REMARKS
 
SUPERIOR ARPT CLOUDY 50 48 92 E13G23 30.09S  
ASHLAND CLOUDY 48 48 100 NE12 30.10F  
HAYWARD FAIR 50 50 100 N3 30.06F  
SIREN FAIR 53 50 91 E7 30.01F  
CUMBERLAND FAIR 59 50 72 SE7 30.03R  
RICE LAKE FAIR 61 51 70 SE9G16 30.04S  
CHETEK FAIR 59 52 76 SE7 30.04S  
LADYSMITH FAIR 56 51 81 MISG 30.08F  
EAU CLAIRE FAIR 61 51 70 SE12 30.03F  
MENOMONIE FAIR 59 52 78 E10 30.02F  
NEW RICHMOND FAIR 61 50 67 SE7 29.99S  
OSCEOLA FAIR 63 53 69 SE10 30.01R  

 
 
WIZ003>005-009-010-017-018-240400-  
NORTH CENTRAL WISCONSIN  
 
CITY SKY/WX TMP DP RH WIND PRES REMARKS
 
MANITOWISH WTR FAIR 55 54 99 SE10G17 30.13S  
ARBOR VITAE FAIR 57 52 85 SE8 30.13S  
WOODRUFF FAIR 57 52 85 SE8 30.13S  
RHINELANDER FAIR 57 51 80 SE9G18 30.16R  
EAGLE RIVER FAIR 51 50 95 SE7 30.16S  
LAND O LAKES CLOUDY 51 49 92 SE9 30.18S  
PHILLIPS FAIR 55 51 86 E6 30.10S  
TOMAHAWK FAIR 54 49 83 SE5 30.14S  
MEDFORD FAIR 56 49 79 SE9G17 30.10S  
MERRILL FAIR 56 51 85 SE8 30.14R  

 
 
WIZ029-030-035-036-043>047-240400-  
CENTRAL WISCONSIN  
 
CITY SKY/WX TMP DP RH WIND PRES REMARKS
 
WAUSAU FAIR 56 51 84 SE10 30.13R  
MOSINEE FAIR 54 52 94 SE7 30.15R  
MARSHFIELD FAIR 57 51 80 SE12 30.10S  
STEVENS POINT FAIR 56 53 89 SE8 30.15R  
WAUPACA FAIR 57 54 92 CALM 30.16S  
WAUTOMA FAIR 57 53 86 E6 30.15R  
WISC RAPIDS FAIR 58 50 75 SE9 30.14R  
CAMP DOUGLAS FAIR 51 51 99 E6 30.10R  

 
 
WIZ011>013-019>022-031-037>040-048>050-240400-  
NORTHEAST WISCONSIN  
 
CITY SKY/WX TMP DP RH WIND PRES REMARKS
 
ANTIGO FAIR 52 51 97 SE8 30.17S  
SHAWANO FAIR 55 52 89 E3 30.18R  
OCONTO FAIR 56 53 89 CALM 30.18S  
STURGEON BAY FAIR 57 54 89 E5 30.19S  
GREEN BAY FAIR 55 53 93 E5 30.18R  
MANITOWOC FAIR 56 54 93 CALM 30.18S  
APPLETON CLEAR 57 52 82 E6 30.15R  
CLINTONVILLE FAIR 54 51 89 CALM 30.17R  
OSHKOSH FAIR 56 53 90 SE6 30.15S  

 
 
WIZ032>034-041-042-053>061-240400-  
SOUTHWEST WISCONSIN  
 
CITY SKY/WX TMP DP RH WIND PRES REMARKS
 
LA CROSSE FAIR 62 53 72 SE7 30.05S  
SPARTA FAIR 50 49 95 CALM 30.09S  
VIROQUA FAIR 56 52 87 E3 30.08S  
BOSCOBEL FAIR 53 51 93 CALM 30.08S  
PRAIRIE DU CHI FAIR 55 52 89 CALM 30.06S  
PLATTEVILLE FAIR 59 52 78 E8 30.09R  

 
 
WIZ056-057-062-063-064-067-068-240400-  
SOUTH CENTRAL WISCONSIN  
 
CITY SKY/WX TMP DP RH WIND PRES REMARKS
 
REEDSBURG NOT AVBL  
BARABOO/DELLS FAIR 57 51 79 SE9 30.12R  
LONE ROCK NOT AVBL  
MINERAL POINT FAIR 61 54 77 E9 30.09S  
MADISON FAIR 57 51 80 SE8 30.12S  
MIDDLETON FAIR 58 52 79 SE8 30.12S  
WATERTOWN FAIR 51 51 100 E3 30.13S  
MONROE FAIR 56 51 82 E7 30.11S  
JANESVILLE FAIR 55 52 88 E5 30.12S  

 
 
WIZ051-052-058>065-066-070>072-240400-  
SOUTHEAST WISCONSIN  
 
CITY SKY/WX TMP DP RH WIND PRES REMARKS
 
MILWAUKEE FAIR 61 55 81 E8 30.14F  
WAUKESHA FAIR 52 48 87 CALM 30.15S  
MILWAUKEE/TIMM FAIR 57 50 77 E3 30.16R  
RACINE FAIR 64 56 75 E7 30.16S  
BURLINGTON FAIR 49 47 96 CALM 30.14F  
KENOSHA FAIR 54 54 100 E5 30.14F  
FOND DU LAC FAIR 55 52 89 SE5 30.15S  
SHEBOYGAN FAIR 52 50 93 CALM 30.17R  
WEST BEND FAIR 50 50 100 E3 30.16S  
JUNEAU FAIR 52 52 100 CALM 30.15S  

 
 
LSZ147-162-240400-  
LAKE SUPERIOR  
 
STATION/POSITION TIME TEMP WIND PRES WAVE
 
AIR SEA DIR/SP/G HT/PER  
(UTC) (F) (DEG/KT/KT) (MB) (FT/S)  
W MID LAKE BUOY 0250 47 52 80/ 25/ 29 1021.5F 7/ 7  
DEVILS ISLAND 0300 47 80/ 28/ 32 1020.7F  
SAXON HARBOR 0240 52 60/ 4/ 6 1019.0F  

 
 
LMZ867-665-643>646-240400-  
LAKE MICHIGAN  
 
STATION/POSITION TIME TEMP WIND PRES WAVE
 
AIR SEA DIR/SP/G HT/PER  
(UTC) (F) (DEG/KT/KT) (MB) (FT/S)  
CHAMBERS ISLAND 0240 61 70/ 11/ 16 1023.0R  
S GREEN BAY BUOY 0300 67 65 120/ 10/ 10 1021.9  
N MID LAKE BUOY 0300 60 65 90/ 21/ 25 1022.1  
NORTHPORT PIER 0240 61 90/ 10/ 12 1022.7R  
KEWAUNEE LAKESHO 0254 62 100/ 6/ 10 1021.0R  
SHEBOYGAN LAKESH 0300 63 90/ 13/ 13 1021.3S  
PORT WASHINGTON 0230 64 100/ 9/ 11 1022.0S  
ATWATER BUOY 0237 65 65 100/ 12/ 16 1020.9F 2/21  
MILWAUKEE LAKESH 0300 65 90/ 13/ 14 N/A  
S MID LAKE BUOY 0250 68 69 90/ 14/ 17 1020.6F 2/ 3  
KENOSHA LAKESH 0300 67 100/ 13/ 16 1020.0  

 
 
TC - TEMPERATURE IN CELSIUS  
VSB - VISIBILITY IN STATUTE MILES  
WCI - WIND CHILL INDEX  
HX - HEAT INDEX  
 
 
 
CLICK HERE TO GO TO PREVIOUS BULLETINS.

The Nexlab WI Page Main Text Page